Theta_e
292 293 293 293 293 294 294 294 295 295 297 297 298 299 302 302 302 299 294 299 292 286 288 289 289 287 287 288 283 283 284 283 283 279 280 279 278 280 279 281 281 281 280 281 282 279 277 290 290 286 286 289 290 291
292 292 292 293 293 293 293 294 294 294 295 296 298 296 301 302 302 301 291 297 298 288 288 293 292 293 292 291 289 285 285 285 286 283 284 285 280 283 279 275 284 278 282 281 284 283 288 290 289 292 291 289 288 290
292 292 292 292 292 292 293 294 294 294 295 296 296 297 299 301 302 300 291 294 292 285 285 286 286 292 293 293 295 286 287 288 288 291 288 285 279 284 278 280 282 286 289 283 283 286 288 290 292 292 292 291 290 291
291 292 292 292 292 292 293 293 293 294 294 295 297 297 295 301 301 300 291 294 291 286 282 283 290 289 294 293 292 292 290 290 290 290 285 282 280 286 281 282 282 285 286 284 284 286 288 289 290 291 293 292 291 291
290 291 291 291 292 292 292 292 293 293 294 294 296 295 296 301 301 299 293 294 294 288 281 282 285 289 291 291 290 291 289 288 287 283 281 280 283 283 283 283 281 285 283 280 280 286 286 286 289 290 289 289 290 290
290 291 291 291 292 292 292 292 292 293 293 294 296 294 297 300 300 294 283 291 295 293 283 278 285 284 288 289 288 288 289 288 286 283 282 284 287 283 278 277 283 285 287 288 285 288 288 289 290 289 288 289 290 288
291 290 291 291 291 291 291 292 293 293 293 294 295 292 297 300 296 287 285 289 295 292 284 278 279 281 286 286 287 287 288 286 284 282 281 282 283 284 280 276 283 285 287 288 289 288 285 287 286 288 288 288 285 283
290 290 290 291 291 292 293 293 292 293 294 294 292 294 298 300 296 287 292 295 294 286 285 278 276 278 283 281 280 286 282 283 283 282 284 281 283 283 276 280 283 284 286 287 287 287 287 288 284 283 283 282 281 281
289 290 291 291 292 292 292 293 293 293 294 293 296 297 293 290 284 287 295 297 293 286 279 278 275 274 281 282 283 282 284 278 284 279 279 281 279 275 280 282 283 273 273 272 275 278 278 278 279 279 279 279 278 280
290 291 291 292 293 292 292 293 293 294 296 294 291 285 280 285 294 294 288 284 282 283 281 278 281 274 280 280 279 280 280 278 274 279 283 278 277 278 267 266 266 266 266 267 271 276 271 273 272 272 273 274 274 274
290 291 291 293 293 293 294 294 295 294 292 286 282 280 286 293 287 283 279 279 279 276 279 277 280 275 281 277 277 281 277 278 272 276 276 275 275 269 262 263 263 263 264 264 265 267 268 267 268 268 269 271 269 269
290 291 292 292 292 292 293 294 292 287 285 286 285 286 285 282 279 275 273 273 275 273 275 277 277 280 280 283 279 278 275 275 270 278 274 271 271 259 258 258 259 260 260 260 263 263 263 264 263 263 264 263 263 263
291 291 291 291 292 292 293 292 292 291 288 286 282 277 277 273 271 270 267 268 270 273 275 275 275 278 279 281 278 275 272 271 275 272 271 273 259 257 255 256 256 258 258 259 260 261 261 261 260 259 259 260 260 259
289 289 289 290 290 290 292 292 291 287 283 277 274 268 271 269 270 269 272 271 266 271 274 277 276 276 278 275 277 272 274 273 269 267 269 264 255 253 254 255 254 254 255 256 257 258 258 258 258 258 258 259 259 258
287 287 289 288 289 289 291 290 283 275 274 271 272 266 264 259 259 259 261 263 260 263 271 273 274 277 274 274 274 270 267 267 269 270 263 257 253 252 253 253 253 253 254 255 256 256 256 256 256 256 257 258 259 259
285 285 284 286 287 286 284 278 272 270 261 261 257 262 260 263 260 260 260 259 259 263 265 270 273 272 271 272 269 268 268 266 268 258 256 255 253 252 252 252 252 253 253 254 255 255 255 254 255 255 255 256 256 257
282 278 284 284 282 278 277 268 265 258 258 258 253 253 254 257 256 255 256 256 259 260 269 270 268 269 271 270 268 266 268 258 255 254 255 254 252 252 252 252 252 253 253 254 255 255 255 256 256 256 254 255 255 255
274 276 281 281 277 272 264 263 260 258 253 253 255 252 253 253 254 254 254 255 258 261 263 266 266 267 267 266 266 256 254 254 255 254 254 254 254 253 253 253 253 254 254 254 255 255 256 256 256 255 256 256 256 255
275 276 278 278 274 267 263 260 260 253 252 253 253 253 253 252 253 253 253 254 255 256 258 262 264 266 263 255 255 253 253 253 253 254 255 254 253 252 252 254 255 254 254 255 255 255 255 255 256 256 256 256 255 255
275 276 276 274 272 265 259 257 261 256 253 252 254 253 253 252 252 252 252 252 253 254 255 256 253 250 251 251 251 252 252 253 252 253 254 254 255 253 254 254 255 255 255 255 255 256 256 254 255 254 255 255 254 253
269 269 270 267 262 260 256 257 254 255 254 252 252 253 251 252 250 250 250 251 251 247 249 248 248 249 249 250 251 251 251 251 252 253 254 253 254 254 254 255 255 255 254 254 253 252 252 252 253 253 253 253 253 253
263 267 261 263 260 257 255 254 255 255 254 252 252 252 250 250 250 249 250 249 247 247 248 248 248 249 249 249 249 250 250 249 252 254 254 253 253 253 253 253 253 252 252 252 252 252 251 252 253 253 252 252 253 252
261 260 256 255 255 254 250 255 253 251 252 250 250 250 248 249 249 251 247 246 247 248 248 248 248 247 248 248 247 248 248 249 252 252 252 251 252 252 252 252 254 253 252 251 252 252 251 251 251 251 252 252 251 252
257 249 247 246 249 247 250 247 250 250 250 249 249 247 247 248 249 249 247 246 247 248 248 247 248 249 249 247 249 248 249 251 251 251 252 251 251 250 251 251 251 251 251 251 251 251 251 250 250 250 250 249 249 249
250 242 245 241 245 246 244 244 245 248 245 244 246 246 246 246 247 246 246 246 247 247 247 248 248 249 249 248 249 249 248 251 251 250 250 252 251 250 250 251 250 250 250 251 250 250 250 249 249 248 248 247 247 246
239 240 242 241 242 243 242 243 241 241 243 244 243 244 245 246 245 246 245 246 247 247 247 247 247 248 248 249 249 250 249 250 252 251 251 252 252 252 252 252 251 251 250 249 249 249 249 248 247 246 246 246 246 244
240 240 242 244 243 243 242 243 243 243 241 242 242 243 245 244 245 246 247 247 247 247 247 247 247 248 249 249 249 249 250 250 250 251 252 252 252 251 252 252 252 251 249 249 248 247 247 246 246 245 245 245 245 245
242 242 240 241 242 242 239 240 240 240 241 242 241 242 242 244 245 247 247 248 248 247 247 247 248 248 249 249 250 250 250 250 250 251 251 251 251 251 250 250 250 252 249 248 248 247 246 245 244 244 244 244 245 246
242 243 243 238 239 242 241 241 241 242 243 242 242 243 244 246 247 247 248 249 249 248 247 246 248 248 249 249 249 249 250 250 249 250 250 252 252 251 250 249 249 249 248 246 247 250 249 247 245 246 246 245 246 247
242 243 242 238 239 241 243 243 243 243 243 245 245 245 246 247 248 250 249 248 248 248 249 249 249 248 249 248 249 249 250 249 249 250 250 251 251 249 247 247 246 246 245 243 244 244 247 247 246 244 245 245 245 246
244 242 242 243 243 244 244 244 243 243 243 244 245 244 246 247 249 250 249 250 250 249 247 246 246 246 246 246 246 246 247 248 246 247 247 246 245 245 245 245 245 244 243 243 243 243 243 244 244 243 244 244 244 245
242 242 245 243 244 244 243 243 245 245 246 246 247 246 247 247 247 250 250 248 246 245 246 247 246 247 247 247 245 245 246 244 244 245 243 245 245 245 245 245 244 243 243 243 243 243 243 242 243 244 245 245 245 245
238 239 239 241 242 242 241 239 244 245 245 246 246 242 243 243 246 248 247 247 248 248 247 247 247 246 245 244 245 245 245 245 244 249 250 249 248 248 246 245 245 244 243 244 245 245 245 245 245 245 245 245 245 245
Wind_Speed
25 25 28 28 28 29 29 29 29 29 30 29 25 24 29 30 32 21 7 15 12 7 8 14 15 8 7 11 9 5 5 2 5 9 7 6 7 7 7 10 3 6 5 6 7 7 10 3 3 4 3 5 4 8
26 27 27 28 28 27 27 29 29 32 31 30 27 26 32 30 31 29 5 11 10 5 1 12 15 14 15 12 6 3 1 3 6 6 6 3 6 4 9 8 8 10 11 7 5 2 4 2 6 8 6 8 7 9
26 28 28 27 27 28 28 30 30 31 33 32 29 27 28 31 32 27 5 11 9 4 3 4 9 12 8 5 8 6 3 4 2 3 1 3 7 1 8 12 11 6 4 4 1 6 10 8 8 8 10 10 11 9
27 29 32 29 29 30 31 31 29 30 32 33 32 26 28 31 31 29 6 9 8 5 5 5 3 13 12 13 13 11 10 2 2 1 3 4 6 5 9 9 10 8 5 11 12 15 9 14 14 14 7 8 11 11
30 33 32 30 31 31 33 32 31 30 31 34 29 27 32 34 31 20 8 10 12 8 5 5 3 10 10 14 14 13 13 8 4 4 5 7 7 9 11 11 12 14 18 13 13 16 11 13 16 7 8 13 13 9
33 32 31 31 31 30 31 30 28 29 31 31 28 24 31 31 30 13 4 9 15 4 5 5 3 4 10 12 15 15 10 7 6 4 5 6 4 7 8 14 22 24 18 16 17 17 17 16 17 9 9 16 11 10
32 30 28 29 28 30 32 30 33 35 31 29 26 20 28 30 17 12 4 8 19 6 4 5 5 3 5 6 4 5 7 3 3 3 5 9 10 8 10 16 24 15 15 19 20 19 18 19 14 6 7 6 3 5
19 21 24 29 31 29 27 28 27 27 27 23 21 29 29 31 18 5 4 22 18 5 4 5 4 5 5 6 6 6 6 5 5 5 4 8 6 8 10 19 22 19 19 21 19 12 18 12 2 3 2 2 5 8
18 22 25 25 34 33 32 30 29 27 23 20 24 24 14 9 4 5 17 25 4 3 6 4 10 7 5 4 4 4 4 6 5 6 7 6 8 9 6 8 5 9 6 12 15 7 6 4 5 3 2 2 7 9
21 21 26 14 4 19 17 24 22 27 31 33 11 5 4 4 24 21 7 8 4 4 3 3 3 6 8 7 6 6 5 5 5 7 4 7 12 1 8 8 8 10 11 12 9 3 7 3 6 7 6 5 6 7
15 10 14 13 19 19 23 29 25 30 18 2 3 5 3 20 5 2 4 5 4 6 4 4 4 9 3 7 5 4 4 4 4 4 5 4 7 5 8 8 9 10 10 10 9 9 9 8 10 9 9 6 4 4
10 13 16 16 17 20 22 24 16 7 2 7 10 7 3 4 3 4 3 3 1 4 3 7 5 5 5 2 3 4 4 3 6 3 4 4 3 6 7 9 10 11 11 11 9 9 9 9 8 8 8 7 5 5
20 20 18 15 14 15 20 19 22 23 9 4 7 4 2 1 4 5 5 3 4 5 5 5 5 4 4 3 3 4 6 6 2 4 5 2 4 5 8 8 9 9 10 10 10 9 9 8 8 7 7 5 6 6
26 23 17 13 8 8 16 20 18 9 8 5 3 5 2 4 3 2 2 6 3 2 7 6 5 4 3 5 3 5 3 2 5 5 5 3 4 6 7 8 7 10 9 10 10 10 9 7 5 6 7 6 4 4
23 30 26 8 7 4 12 21 17 8 6 5 4 4 3 3 5 2 2 5 3 2 1 5 4 2 3 4 3 4 3 6 6 4 3 3 5 6 7 8 8 8 9 8 8 7 6 5 4 5 7 7 5 5
13 13 18 22 22 21 19 15 10 5 7 6 9 4 3 4 3 2 4 4 5 3 2 2 4 4 3 3 6 9 5 7 3 3 3 4 5 6 7 7 6 7 7 7 6 6 5 5 5 5 6 7 8 9
15 8 23 15 16 21 19 8 6 10 6 5 4 4 3 5 5 3 2 3 4 2 2 2 6 5 3 4 5 2 2 3 3 2 2 4 5 7 5 6 5 5 5 6 5 5 5 5 3 5 8 8 9 10
7 10 23 18 6 6 5 8 7 7 8 5 2 3 3 4 2 3 3 5 3 2 2 2 1 4 5 4 3 3 2 2 1 1 3 4 5 4 5 6 5 5 5 4 4 5 4 4 6 6 7 7 8 8
11 16 23 21 9 6 6 7 6 7 5 3 3 3 2 3 6 5 4 4 3 3 2 1 2 2 2 2 2 3 3 2 2 1 2 1 3 3 3 3 3 5 5 6 5 5 5 7 6 5 5 6 6 6
10 21 24 21 14 6 7 6 4 6 4 3 3 2 3 4 2 3 6 6 3 2 4 3 3 2 2 3 3 3 2 1 1 1 1 0 2 1 3 3 3 3 3 5 5 6 4 5 6 6 6 6 6 7
12 12 17 9 6 9 7 4 6 4 4 4 1 3 3 3 4 5 5 6 4 4 2 2 2 1 2 2 2 1 2 1 2 2 2 1 1 1 2 2 3 3 4 4 4 5 6 5 5 5 5 6 5 5
6 13 5 9 7 6 7 7 4 3 4 3 3 3 3 3 3 3 4 4 3 2 2 1 2 2 1 1 1 1 3 3 3 2 2 2 1 2 1 2 3 3 4 4 3 4 4 4 4 4 4 4 3 3
8 7 7 10 7 8 3 4 4 5 3 2 1 3 3 1 2 2 3 1 1 1 1 1 1 1 1 1 1 1 1 2 1 2 2 3 3 2 2 2 2 3 3 3 3 3 3 5 5 4 3 3 3 3
12 11 10 8 9 4 2 5 3 3 3 3 2 3 2 2 3 2 1 0 1 1 1 1 1 0 1 1 1 1 2 1 2 2 2 2 2 2 2 2 3 3 3 2 1 2 3 3 4 3 3 4 4 4
11 13 8 8 6 5 6 4 5 4 4 3 2 3 3 3 1 1 1 0 0 1 1 1 0 1 1 1 1 1 2 2 2 2 1 1 3 2 1 2 2 1 1 0 0 1 1 1 2 3 4 4 4 6
13 6 7 7 5 5 4 3 4 3 2 2 3 2 2 1 1 2 1 0 0 0 0 0 1 0 0 0 1 1 0 2 1 1 2 2 1 2 1 2 2 2 1 1 1 1 2 3 4 5 5 5 5 5
8 6 4 1 1 1 3 3 1 2 3 2 2 3 1 0 3 0 0 1 1 1 1 0 1 1 1 1 0 0 0 1 2 2 1 1 1 2 2 1 2 2 3 2 2 2 4 4 5 5 5 6 6 6
3 4 5 5 4 3 3 2 3 2 1 1 1 1 2 2 2 0 1 1 1 1 1 1 1 1 1 1 0 1 1 1 1 2 2 2 3 3 2 1 1 4 2 2 2 3 4 5 5 6 7 8 9 6
4 2 0 4 3 3 3 1 1 1 1 1 1 1 2 2 1 2 2 2 2 2 1 2 2 2 2 2 2 3 2 2 3 3 5 4 2 3 3 3 3 2 3 3 7 9 8 8 9 9 10 8 8 9
2 2 2 2 3 2 1 1 1 1 1 2 2 3 3 3 3 3 3 3 4 4 3 2 1 2 2 2 2 4 4 5 5 5 4 4 1 1 2 2 3 3 3 3 5 6 8 8 8 5 6 7 7 8
2 0 2 1 2 1 1 1 1 1 2 2 3 3 3 3 3 4 6 5 4 3 3 3 3 4 4 4 3 2 3 3 4 6 4 3 3 4 4 5 4 3 2 3 5 6 7 7 7 9 10 12 12 11
2 3 1 2 0 1 2 2 1 2 2 2 2 3 2 2 3 3 4 5 4 4 7 5 4 5 5 5 2 2 4 2 3 4 6 5 5 6 5 4 4 4 5 7 7 8 8 10 9 10 11 15 15 15
1 1 1 1 2 1 2 3 1 2 2 2 1 1 1 2 5 3 1 4 4 5 5 6 6 3 5 6 5 4 6 4 5 8 10 11 12 11 6 5 6 6 8 8 8 9 11 13 13 14 15 16 17 18
Wind_Direction
273 277 273 270 266 266 262 257 258 252 251 252 232 273 224 214 210 210 190 194 189 210 236 224 220 197 180 198 196 143 148 176 165 202 208 197 230 214 234 255 282 223 218 205 216 242 249 351 63 225 350 316 273 283
273 284 280 271 266 265 262 259 261 257 249 250 245 240 229 214 204 206 192 194 186 186 298 209 226 224 207 196 203 186 131 143 175 199 210 219 216 210 219 248 207 237 226 247 246 273 183 208 146 188 199 244 255 247
279 279 270 276 270 257 253 258 262 255 247 240 236 227 263 212 204 202 170 171 166 140 156 188 211 213 215 216 218 202 211 236 267 349 312 255 241 175 226 231 254 243 143 228 216 225 242 225 246 255 229 231 266 274
264 262 268 265 269 266 260 254 257 251 247 239 236 223 264 215 204 195 165 177 171 129 205 175 269 210 206 211 217 225 235 124 323 285 247 255 247 211 251 270 266 248 203 237 247 254 259 256 260 268 233 253 267 268
261 261 264 269 268 265 258 256 250 250 241 240 230 219 261 211 201 194 173 178 184 182 165 140 142 213 215 209 207 213 217 216 189 209 227 244 249 253 256 266 257 241 246 246 252 265 264 273 289 213 241 264 261 266
265 266 267 273 271 264 256 247 247 252 238 234 220 218 238 198 192 183 162 206 180 150 133 160 82 158 183 203 209 208 208 214 219 202 227 237 249 247 253 245 244 247 250 253 260 264 262 269 263 263 263 272 270 262
259 264 271 268 266 263 258 250 248 237 232 220 208 245 229 192 190 183 195 158 162 124 133 143 167 111 149 145 165 173 186 174 194 215 228 248 246 233 252 262 262 266 253 247 254 259 268 258 259 286 240 268 306 298
266 265 267 270 268 261 252 238 229 214 213 205 242 249 189 183 171 140 163 153 141 109 166 161 105 154 195 158 174 177 171 188 205 225 231 238 250 225 247 250 263 263 255 259 257 263 252 266 5 44 48 9 292 270
289 286 282 278 269 253 235 223 216 211 206 214 176 161 159 186 155 129 136 152 83 129 151 175 154 162 161 156 140 159 188 197 189 218 227 213 231 228 263 269 313 20 359 325 318 325 335 313 332 5 340 302 259 277
305 297 288 223 87 181 221 204 197 193 186 183 134 126 114 122 123 120 125 173 158 163 160 144 82 131 178 166 165 157 174 213 219 216 196 229 241 180 36 31 11 357 351 349 313 348 357 346 7 340 325 312 297 294
314 9 164 111 96 89 110 125 126 125 103 88 97 72 89 134 84 119 183 175 142 147 156 122 149 133 217 161 150 211 172 176 228 194 222 232 250 89 13 6 360 349 344 337 329 313 310 308 308 311 310 315 318 312
39 72 80 85 95 103 108 102 89 59 51 96 99 85 81 80 121 159 119 109 232 102 127 152 122 108 145 151 148 170 187 181 234 131 191 235 92 48 6 350 345 344 339 330 330 324 324 326 326 319 316 323 339 349
52 56 67 78 82 95 115 97 96 104 87 51 54 70 97 54 140 155 140 105 150 160 149 154 122 114 127 173 118 163 193 213 115 207 222 258 74 15 350 338 332 332 337 334 333 335 332 334 0 356 336 341 343 17
50 41 37 46 69 95 111 118 105 46 51 58 69 91 44 111 91 49 135 107 79 137 119 121 114 125 110 159 140 195 159 192 214 213 226 87 24 333 329 332 328 327 333 334 332 334 340 345 348 5 5 354 353 31
48 40 37 72 87 94 143 108 70 46 40 58 356 69 71 107 57 46 355 101 36 346 71 100 81 110 129 155 193 105 186 224 215 218 72 37 352 329 325 333 325 321 329 331 336 335 332 348 9 24 21 16 44 61
38 46 31 40 56 81 90 64 37 67 59 53 31 103 95 92 102 63 34 75 17 7 351 11 113 148 170 184 183 208 209 214 134 67 24 348 348 334 327 323 315 312 315 328 342 345 360 10 26 44 42 42 46 57
46 33 8 24 53 55 44 68 60 49 62 59 66 37 343 38 72 98 17 41 351 273 143 150 154 179 85 205 211 267 225 70 58 32 354 355 329 324 315 311 325 328 342 350 1 15 22 39 43 70 65 57 66 65
44 349 10 14 18 72 50 39 81 71 69 39 87 29 47 16 77 78 48 18 333 31 339 88 100 177 181 203 189 121 124 117 123 11 360 347 338 341 339 338 345 351 357 7 24 37 44 60 73 71 77 75 72 64
29 13 12 16 43 81 64 43 29 86 60 76 100 55 36 74 59 40 19 8 7 358 312 235 143 184 127 64 81 116 120 98 93 15 355 13 346 345 324 347 13 37 30 40 41 53 59 47 49 61 64 63 67 56
18 22 9 23 29 59 63 37 41 77 70 63 45 33 48 45 17 25 33 18 15 3 37 53 65 64 37 64 37 60 71 51 352 315 215 59 25 20 17 8 44 56 64 68 52 39 58 58 43 45 47 53 66 54
20 354 7 41 52 52 73 25 61 60 116 84 36 18 55 26 31 22 14 349 45 34 73 37 70 59 11 340 352 345 303 257 250 298 342 338 54 34 44 47 57 60 65 56 61 56 51 46 36 39 47 50 52 53
357 4 41 19 69 62 72 19 56 61 61 74 77 35 48 46 28 25 320 42 52 44 7 6 32 3 3 39 23 334 332 294 269 275 84 111 136 104 62 40 88 81 70 59 50 57 54 32 23 33 42 38 30 40
20 28 49 14 73 43 29 337 74 12 82 70 76 73 44 55 19 277 80 53 68 41 346 320 339 264 303 5 18 8 339 263 154 81 85 85 77 79 93 61 74 104 102 74 61 53 34 20 25 14 6 14 359 8
33 45 35 38 22 62 351 36 30 58 70 53 75 105 60 16 322 28 78 49 54 324 321 332 281 160 146 92 54 14 7 356 102 98 113 129 134 93 71 79 62 60 61 65 43 69 45 18 341 343 359 350 351 341
68 6 16 16 16 34 40 31 11 50 68 19 66 62 32 322 2 352 309 68 77 24 1 327 245 273 281 102 106 58 355 293 168 141 60 48 113 127 146 83 69 48 329 212 16 32 28 322 313 324 330 322 317 312
68 352 33 8 18 36 9 58 34 40 28 61 43 341 319 1 310 258 234 150 174 208 187 50 48 102 152 325 173 179 108 341 293 146 160 198 204 262 193 198 220 183 158 57 303 316 304 294 289 296 293 293 286 283
59 11 9 64 17 76 77 65 68 48 59 50 3 359 5 15 265 81 148 197 228 167 192 211 236 270 291 158 156 255 323 325 337 15 66 155 258 282 288 260 274 64 141 181 216 252 279 292 293 290 286 283 267 263
83 21 49 344 43 19 92 48 33 45 25 78 273 253 185 218 275 29 248 123 181 171 202 224 250 269 282 266 279 236 214 225 247 255 255 236 225 227 214 193 205 184 173 206 247 253 251 259 268 273 270 270 280 272
51 11 26 30 32 51 54 67 288 236 206 175 263 270 266 249 252 234 206 182 176 193 217 223 214 208 234 243 248 246 243 233 233 242 252 262 230 204 192 205 219 223 238 256 271 275 259 241 243 250 256 261 269 277
15 358 80 73 77 21 316 182 258 264 243 245 277 285 250 248 232 195 191 194 204 215 221 215 209 207 229 215 253 241 215 215 220 236 256 255 272 87 185 224 247 246 237 232 265 279 289 293 295 288 274 273 272 274
323 333 81 58 100 94 7 300 255 236 244 238 210 248 273 312 286 207 211 208 201 189 201 224 224 214 216 218 210 240 269 194 218 238 251 266 260 248 245 240 236 231 226 240 255 257 262 268 264 270 272 271 272 270
347 33 30 88 298 101 19 352 280 266 221 238 217 220 258 264 269 207 182 158 160 205 222 218 221 238 209 228 213 243 243 227 223 224 229 237 248 249 252 252 242 231 234 243 244 249 251 251 266 268 275 279 279 277
347 5 49 24 15 352 30 339 255 299 227 252 238 342 320 298 259 295 293 221 206 206 207 213 222 219 212 217 221 231 226 234 239 253 253 250 251 256 254 239 233 229 237 247 253 255 259 262 265 269 269 269 272 273